Flag for Japan Weather past 2 weeks in Suzuka, Japan

Now
92 °F

Hot.


Feels Like: 102 °F
Forecast: 77 / 92 °F
Wind: 10 mph from North

Location: Tsu

Current Time: Jul 24, 2014 at 6:34:42 PM

Latest Report: Jul 24, 2014 at 5:00 PM


Visibility: N/A

Pressure: 29.70 "Hg

Humidity: 54%

Dew point: 73 °F

Location of SuzukaLocation

Historic Weather in Suzuka — Graph

°F

Suzuka temperature yesterday

Maximum temperature yesterday: 94 °F (at 1:00 PM)
Minimum temperature yesterday: 81 °F (at 1:00 AM)
Average temperature yesterday: 86 °F

Past Weeks' High & Low Weather Summary

 TemperatureHumidityPressure
High95 °F (Jul 24, 2:00 PM)97% (Jul 11, 12:00 AM)29.95 "Hg (Jul 11, 12:00 AM)
Low72 °F (Jul 20, 12:00 AM)39% (Jul 12, 2:00 PM)29.23 "Hg (Jul 10, 6:00 PM)
Average82 °F73%29.76 "Hg
* Reported Jul 9 5:00 PM — Jul 24 5:00 PM, Suzuka, Weather by CustomWeather, © 2014

Note: Actual official high and low records may vary slightly from our data, if they occured in-between our weather recording intervals... More about our weather records

Advertising

Suzuka weather history for previous 24 hours

 ConditionsComfort  
Time TempWeatherWind HumidityBarometerVisibility
5:00 PM
Jul 24
92 °FHot.10 mph54%29.70 "HgN/A
4:00 PM92 °FHot.9 mph55%29.70 "HgN/A
3:00 PM92 °FOvercast.10 mph50%29.70 "Hg12 mi
2:00 PM95 °FExtremely hot.9 mph47%29.69 "HgN/A
1:00 PM94 °FExtremely hot.10 mph47%29.70 "HgN/A
12:00 PM94 °FExtremely hot.12 mph49%29.70 "HgN/A
11:00 AM90 °FHot.7 mph56%29.71 "HgN/A
10:00 AM89 °FHot.7 mph57%29.71 "HgN/A
9:00 AM89 °FOvercast.10 mph60%29.72 "Hg12 mi
8:00 AM87 °FWarm.10 mph63%29.72 "HgN/A
7:00 AM85 °FWarm.7 mph68%29.72 "HgN/A
6:00 AM83 °FWarm.3 mph70%29.71 "HgN/A
5:00 AM83 °FWarm.5 mph71%29.70 "HgN/A
4:00 AM82 °FWarm.3 mph71%29.70 "HgN/A
3:00 AM83 °FWarm.3 mph69%29.69 "HgN/A
2:00 AM83 °FWarm.5 mph67%29.69 "HgN/A
1:00 AM84 °FWarm.2 mph63%29.70 "HgN/A
12:00 AM85 °FWarm.5 mph62%29.71 "HgN/A
11:00 PM
Jul 23
85 °FWarm.6 mph61%29.71 "HgN/A
10:00 PM85 °FWarm.8 mph58%29.71 "HgN/A
Weather by CustomWeather, © 2014

See weather overviewHow to use our weather pages